Regional Weather Roundup
Issued by NWS State College, PA

Home | Current Version | Previous Version | Text Only | Print | Product List | Glossary On
Versions: 1 2 3 4 5 6 7 8 9 10 11 12 13 14 15 16 17 18 19 20 21 22 23 24 25 26 27 28 29 30 31 32 33 34 35 36 37 38 39 40 41 42 43 44 45 46 47 48 49 50
571
ASUS41 KCTP 291203
RWRCTP

REGIONAL WEATHER ROUNDUP
NATIONAL WEATHER SERVICE STATE COLLEGE PA
800 AM EDT FRI APR 29 2016

Note: "fair" indicates few or no clouds below 12,000 feet with no
significant weather and/or obstructions to visibility.

* = STATION THAT DOES NOT REPORT PRECIPITATION /E.G. RAIN...SNOW...ETC/
    THUNDER OR FOG.

PAZ002>004-007>009-013>016-020>023-029>032-291300-
WESTERN PENNSYLVANIA

CITY           SKY/WX    TMP DP  RH WIND       PRES   REMARKS
ERIE           CLOUDY    46  41  82 NE8       30.00R
MEADVILLE      CLOUDY    42  42 100 VRB5      29.97F
FRANKLIN*      CLOUDY    43  39  87 E7        30.00S
NEW CASTLE     LGT RAIN  45  44  97 CALM      30.00R
BEAVER COUNTY  CLOUDY    45  45 100 CALM      29.98S
BUTLER*        CLOUDY    45  43  93 CALM      30.01S
PITTSBURGH INT FOG       47  44  90 NE5       29.98R VSB 1
PITTSBURGH     FOG       46  44  93 CALM      29.98R VSB 1/2
INDIANA*       FOG       46  46 100 CALM      30.01R VSB 3/4
LATROBE        FOG       48  48 100 W5        30.00R VSB 3/4
WASHINGTON CO* CLOUDY    46  45  93 CALM      30.00R
$$

PAZ004>006-010>012-017>019-024>028-033>037-041-042-045-046-049>053-291300-
CENTRAL PENNSYLVANIA

CITY           SKY/WX    TMP DP  RH WIND       PRES   REMARKS
BRADFORD       CLOUDY    41  39  93 E7        29.99R FOG
DUBOIS         CLOUDY    41  40  96 E7        29.97R FOG
CLEARFIELD     LGT RAIN  43  40  89 E5        30.01R FOG
JOHNSTOWN      CLOUDY    43  40  89 S5        29.97S FOG
ALTOONA        LGT RAIN  43  41  93 SE5       30.02R FOG
STATE COLLEGE  NOT AVBL
WILLIAMSPORT   CLOUDY    47  38  71 SE12      30.05S
SELINSGROVE    CLOUDY    45  40  82 CALM      30.08R
FT INDIANTOWN  CLOUDY    43  43 100 NE5       30.08R FOG
CAPITAL CITY   CLOUDY    46  42  86 E8        30.07R FOG
HARRISBURG     DRIZZLE   45  42  89 E7        30.07R FOG
YORK           LGT RAIN  44  43  96 NE5       30.06R FOG
$$

PAZ038>040-043-044-047-048-054-055-060>062-067>071-291300-
EASTERN PENNSYLVANIA

CITY           SKY/WX    TMP DP  RH WIND       PRES   REMARKS
SCRANTON       CLOUDY    48  39  71 VRB3      30.06R
MOUNT POCONO   CLOUDY    42  37  82 E6        30.05R
ALLENTOWN      CLOUDY    48  40  73 E5        30.08S
QUAKERTOWN*    CLOUDY    45  41  87 CALM      30.08S
READING        CLOUDY    46  39  76 E3        30.07R
LANCASTER      CLOUDY    43  41  93 E7        30.07R
COATESVILLE    CLOUDY    43  43 100 E6G14     30.07S FOG
POTTSTOWN      CLOUDY    45  42  89 E5        30.08S FOG
BLUE BELL      CLOUDY    45  43  93 CALM      30.07R
DOYLESTOWN     CLOUDY    43  42  97 CALM      30.07S
WILLOW GROVE   NOT AVBL
NORTH PHILA    CLOUDY    48  43  82 NE6       30.09S
PHILADELPHIA   CLOUDY    48  41  76 NE7       30.07R
$$




USA.gov is the U.S. government's official web portal to all federal, state and local government web resources and services.